Radiation Dose at Monitoring Post of Fukushima Daini Nuclear Power Station
Date,Time,MP-1(microSv/h),MP-2(microSv/h),MP-3(microSv/h),MP-4(microSv/h),MP-5(microSv/h),MP-6(microSv/h),MP-7(microSv/h),Wind Direction,Wind Velocity(m/s),Rain
2024/05/15,00:00,0.142,0.125,0.202,0.189,0.201,0.112,0.073,-,CALM,No
2024/05/15,00:10,0.142,0.124,0.201,0.190,0.202,0.112,0.073,-,CALM,No
2024/05/15,00:20,0.141,0.125,0.202,0.189,0.202,0.112,0.073,east-southeast,0.6,No
2024/05/15,00:30,0.142,0.125,0.202,0.189,0.202,0.111,0.073,-,CALM,No
2024/05/15,00:40,0.142,0.123,0.201,0.190,0.203,0.112,0.074,-,CALM,No
2024/05/15,00:50,0.142,0.123,0.201,0.189,0.203,0.112,0.073,-,CALM,No
2024/05/15,01:00,0.142,0.125,0.201,0.191,0.202,0.112,0.074,-,CALM,No
2024/05/15,01:10,0.142,0.124,0.203,0.189,0.203,0.112,0.074,-,CALM,No
2024/05/15,01:20,0.141,0.124,0.201,0.190,0.203,0.111,0.074,-,CALM,No
2024/05/15,01:30,0.142,0.124,0.201,0.190,0.202,0.111,0.074,-,CALM,No
2024/05/15,01:40,0.142,0.124,0.201,0.190,0.202,0.112,0.074,-,CALM,No
2024/05/15,01:50,0.142,0.124,0.201,0.190,0.202,0.112,0.074,-,CALM,No
2024/05/15,02:00,0.142,0.126,0.202,0.188,0.203,0.111,0.073,north,0.6,No
2024/05/15,02:10,0.141,0.123,0.201,0.189,0.202,0.113,0.073,-,CALM,No
2024/05/15,02:20,0.141,0.125,0.201,0.190,0.203,0.113,0.074,-,CALM,No
2024/05/15,02:30,0.142,0.124,0.201,0.188,0.201,0.111,0.074,-,CALM,No
2024/05/15,02:40,0.141,0.124,0.202,0.190,0.201,0.112,0.074,-,CALM,No
2024/05/15,02:50,0.142,0.124,0.200,0.189,0.203,0.112,0.074,north-northwest,0.8,No
2024/05/15,03:00,0.141,0.124,0.202,0.189,0.201,0.113,0.073,north,0.9,No
2024/05/15,03:10,0.141,0.124,0.203,0.189,0.202,0.111,0.074,north-northeast,1.4,No
2024/05/15,03:20,0.142,0.125,0.202,0.190,0.202,0.112,0.073,north-northeast,0.9,No
2024/05/15,03:30,0.141,0.125,0.201,0.190,0.201,0.112,0.073,-,CALM,No
2024/05/15,03:40,0.141,0.124,0.202,0.190,0.202,0.112,0.074,-,CALM,No
2024/05/15,03:50,0.142,0.124,0.201,0.189,0.200,0.112,0.074,northeast,0.9,No
2024/05/15,04:00,0.142,0.124,0.201,0.189,0.202,0.112,0.073,east-northeast,0.9,No
2024/05/15,04:10,0.141,0.125,0.203,0.189,0.202,0.112,0.074,northeast,0.7,No
2024/05/15,04:20,0.141,0.125,0.200,0.189,0.202,0.111,0.073,northeast,0.9,No
2024/05/15,04:30,0.142,0.124,0.201,0.189,0.202,0.112,0.074,east-northeast,0.8,No
2024/05/15,04:40,0.141,0.124,0.202,0.189,0.202,0.111,0.074,-,CALM,No
2024/05/15,04:50,0.142,0.125,0.203,0.189,0.201,0.112,0.073,east-northeast,0.9,No
2024/05/15,05:00,0.141,0.124,0.201,0.189,0.201,0.111,0.073,east-southeast,0.7,No
2024/05/15,05:10,0.142,0.124,0.202,0.190,0.202,0.112,0.073,-,CALM,No
2024/05/15,05:20,0.142,0.125,0.202,0.190,0.201,0.112,0.073,-,CALM,No
2024/05/15,05:30,0.141,0.124,0.201,0.189,0.202,0.112,0.074,northeast,0.7,No
2024/05/15,05:40,0.140,0.123,0.201,0.189,0.202,0.111,0.073,-,CALM,No
2024/05/15,05:50,0.142,0.124,0.201,0.191,0.203,0.112,0.073,-,CALM,No
2024/05/15,06:00,0.141,0.124,0.203,0.190,0.199,0.111,0.074,north-northeast,0.6,No
2024/05/15,06:10,0.142,0.123,0.202,0.190,0.203,0.113,0.073,north-northeast,1.2,No
2024/05/15,06:20,0.141,0.123,0.203,0.190,0.201,0.112,0.073,north-northeast,0.6,No
2024/05/15,06:30,0.142,0.124,0.201,0.189,0.202,0.111,0.074,northeast,0.7,No
2024/05/15,06:40,0.141,0.124,0.200,0.190,0.200,0.112,0.073,-,CALM,No
2024/05/15,06:50,0.143,0.124,0.202,0.189,0.203,0.112,0.072,-,CALM,No
2024/05/15,07:00,0.141,0.124,0.201,0.190,0.201,0.111,0.074,-,CALM,No
2024/05/15,07:10,0.141,0.124,0.201,0.190,0.202,0.112,0.073,southeast,0.6,No
2024/05/15,07:20,0.141,0.125,0.200,0.189,0.201,0.111,0.073,east-northeast,0.6,No
2024/05/15,07:30,0.141,0.123,0.200,0.188,0.203,0.112,0.073,east-southeast,1.4,No
2024/05/15,07:40,0.140,0.123,0.199,0.188,0.200,0.111,0.074,east-southeast,2.0,No
2024/05/15,07:50,0.142,0.124,0.201,0.189,0.203,0.111,0.073,southeast,1.8,No
2024/05/15,08:00,0.141,0.123,0.200,0.188,0.201,0.111,0.075,southeast,2.5,No
2024/05/15,08:10,0.140,0.124,0.198,0.189,0.203,0.112,0.074,southeast,2.3,No
2024/05/15,08:20,0.143,0.124,0.201,0.190,0.201,0.111,0.073,southeast,2.8,No
2024/05/15,08:30,0.141,0.125,0.201,0.188,0.201,0.112,0.073,southeast,2.8,No
2024/05/15,08:40,0.141,0.124,0.201,0.188,0.203,0.111,0.073,southeast,2.9,No
2024/05/15,08:50,0.143,0.123,0.200,0.190,0.201,0.112,0.074,southeast,2.7,No
2024/05/15,09:00,0.142,0.124,0.202,0.190,0.201,0.112,0.073,southeast,2.3,No
2024/05/15,09:10,0.141,0.124,0.202,0.188,0.205,0.113,0.074,east-southeast,2.4,No
2024/05/15,09:20,0.142,0.125,0.199,0.189,0.202,0.112,0.074,east-southeast,2.8,No
2024/05/15,09:30,0.142,0.124,0.203,0.190,0.202,0.112,0.074,southeast,2.3,No
2024/05/15,09:40,0.141,0.124,0.203,0.189,0.204,0.112,0.075,southeast,1.8,No
2024/05/15,09:50,0.143,0.125,0.201,0.189,0.201,0.112,0.074,southeast,1.9,No
2024/05/15,10:00,0.143,0.124,0.200,0.192,0.201,0.113,0.074,southeast,2.8,No
2024/05/15,10:10,0.141,0.125,0.203,0.190,0.205,0.112,0.074,southeast,2.6,No
2024/05/15,10:20,0.142,0.125,0.204,0.189,0.202,0.112,0.074,southeast,3.1,No
2024/05/15,10:30,0.144,0.124,0.201,0.191,0.201,0.112,0.075,southeast,3.3,No
2024/05/15,10:40,0.141,0.125,0.200,0.191,0.205,0.113,0.073,southeast,3.3,No
2024/05/15,10:50,0.141,0.126,0.203,0.191,0.203,0.112,0.073,southeast,2.9,No
2024/05/15,11:00,0.142,0.125,0.204,0.188,0.200,0.111,0.074,southeast,2.3,No
2024/05/15,11:10,0.143,0.125,0.201,0.188,0.198,0.113,0.074,southeast,2.4,No
2024/05/15,11:20,0.141,0.125,0.201,0.191,0.204,0.112,0.074,southeast,2.3,No
2024/05/15,11:30,0.141,0.125,0.203,0.191,0.202,0.112,0.073,south-southeast,3.4,No
2024/05/15,11:40,0.143,0.124,0.203,0.189,0.201,0.112,0.074,south-southeast,3.9,No
2024/05/15,11:50,0.141,0.124,0.201,0.189,0.200,0.111,0.073,south-southeast,3.4,No
2024/05/15,12:00,0.142,0.125,0.200,0.191,0.204,0.112,0.074,south-southeast,5.0,No
2024/05/15,12:10,0.140,0.125,0.203,0.191,0.204,0.111,0.074,south-southeast,5.1,No
2024/05/15,12:20,0.141,0.123,0.203,0.190,0.203,0.112,0.074,south-southeast,5.3,No
2024/05/15,12:30,0.143,0.125,0.203,0.189,0.199,0.111,0.074,south-southeast,5.3,No
2024/05/15,12:40,0.143,0.124,0.202,0.190,0.203,0.113,0.074,south-southeast,5.8,No
2024/05/15,12:50,0.142,0.124,0.201,0.191,0.204,0.112,0.073,south-southeast,6.5,No
2024/05/15,13:00,0.141,0.123,0.205,0.190,0.203,0.112,0.074,south-southeast,7.4,No
2024/05/15,13:10,0.141,0.125,0.204,0.189,0.202,0.111,0.074,south-southeast,7.3,No
2024/05/15,13:20,0.142,0.126,0.202,0.191,0.202,0.112,0.073,south-southeast,7.7,No
2024/05/15,13:30,0.142,0.124,0.201,0.192,0.203,0.113,0.074,south-southeast,8.1,No
2024/05/15,13:40,0.142,0.124,0.203,0.190,0.204,0.112,0.074,south-southeast,8.3,No
2024/05/15,13:50,0.140,0.126,0.203,0.190,0.201,0.112,0.074,south-southeast,7.9,No
2024/05/15,14:00,0.142,0.125,0.202,0.193,0.200,0.112,0.073,south-southeast,8.6,No
2024/05/15,14:10,0.144,0.125,0.203,0.192,0.204,0.112,0.074,south-southeast,8.4,No
2024/05/15,14:20,0.141,0.125,0.205,0.189,0.203,0.113,0.074,south-southeast,8.4,No
2024/05/15,14:30,0.142,0.125,0.202,0.192,0.202,0.112,0.073,south-southeast,8.5,No
2024/05/15,14:40,0.143,0.125,0.203,0.191,0.205,0.111,0.073,south-southeast,7.8,No
2024/05/15,14:50,0.142,0.125,0.204,0.190,0.203,0.112,0.074,south-southeast,8.6,No
2024/05/15,15:00,0.141,0.125,0.202,0.192,0.201,0.112,0.073,south-southeast,9.6,No
2024/05/15,15:10,0.143,0.125,0.203,0.191,0.203,0.113,0.074,south-southeast,10.1,No
2024/05/15,15:20,0.143,0.125,0.204,0.190,0.203,0.112,0.074,south-southeast,9.8,No
2024/05/15,15:30,0.140,0.124,0.202,0.192,0.201,0.113,0.074,south-southeast,9.5,No
2024/05/15,15:40,0.141,0.126,0.204,0.189,0.202,0.111,0.074,south-southeast,9.2,No
2024/05/15,15:50,0.143,0.125,0.203,0.191,0.205,0.113,0.074,south-southeast,8.3,No
2024/05/15,16:00,0.142,0.125,0.203,0.192,0.202,0.112,0.074,south-southeast,8.7,No
2024/05/15,16:10,0.142,0.126,0.205,0.191,0.201,0.112,0.074,south-southeast,9.2,No
2024/05/15,16:20,0.143,0.126,0.203,0.192,0.203,0.113,0.074,south-southeast,9.0,No
2024/05/15,16:30,0.141,0.126,0.204,0.190,0.203,0.112,0.074,south-southeast,9.5,No
2024/05/15,16:40,0.141,0.125,0.204,0.191,0.203,0.112,0.075,south-southeast,9.5,No
2024/05/15,16:50,0.142,0.126,0.203,0.192,0.204,0.113,0.074,south-southeast,10.7,No
2024/05/15,17:00,0.142,0.124,0.202,0.191,0.202,0.113,0.074,south-southeast,8.9,No
2024/05/15,17:10,0.143,0.126,0.203,0.192,0.204,0.113,0.074,south-southeast,9.0,No
2024/05/15,17:20,0.142,0.125,0.205,0.191,0.202,0.112,0.074,south-southeast,8.8,No
2024/05/15,17:30,0.142,0.125,0.204,0.193,0.204,0.113,0.074,south-southeast,9.0,No
2024/05/15,17:40,0.142,0.124,0.204,0.191,0.204,0.111,0.073,south,9.3,No
2024/05/15,17:50,0.142,0.126,0.203,0.192,0.204,0.113,0.074,south-southeast,8.5,No
2024/05/15,18:00,0.143,0.125,0.203,0.190,0.204,0.112,0.074,south-southeast,8.9,No
2024/05/15,18:10,0.142,0.126,0.203,0.192,0.203,0.112,0.074,south,8.8,No
2024/05/15,18:20,0.142,0.125,0.203,0.191,0.204,0.113,0.074,south,8.8,No
2024/05/15,18:30,0.143,0.125,0.203,0.192,0.202,0.113,0.074,south,7.9,No
2024/05/15,18:40,0.143,0.126,0.204,0.191,0.204,0.112,0.073,south,6.7,No
2024/05/15,18:50,0.142,0.125,0.204,0.192,0.201,0.112,0.074,south,7.8,No
2024/05/15,19:00,0.143,0.125,0.203,0.191,0.204,0.113,0.074,south,7.4,No
2024/05/15,19:10,0.142,0.125,0.204,0.192,0.203,0.113,0.073,south,8.1,No
2024/05/15,19:20,0.144,0.124,0.203,0.191,0.203,0.112,0.073,south,7.5,No
2024/05/15,19:30,0.142,0.126,0.204,0.192,0.203,0.112,0.074,south,7.5,No
2024/05/15,19:40,0.142,0.125,0.203,0.192,0.204,0.113,0.074,south,7.1,No
2024/05/15,19:50,0.142,0.126,0.203,0.192,0.203,0.112,0.074,south,7.7,No
2024/05/15,20:00,0.143,0.125,0.203,0.191,0.204,0.112,0.074,south,8.1,No
2024/05/15,20:10,0.142,0.126,0.205,0.192,0.202,0.114,0.072,south,7.6,No
2024/05/15,20:20,0.143,0.125,0.203,0.192,0.203,0.113,0.073,south-southwest,6.6,No
2024/05/15,20:30,0.142,0.125,0.204,0.192,0.203,0.113,0.074,south,7.2,No
2024/05/15,20:40,0.143,0.125,0.203,0.192,0.203,0.113,0.074,south,7.2,No
2024/05/15,20:50,0.143,0.126,0.203,0.193,0.204,0.113,0.074,south-southwest,6.9,No
2024/05/15,21:00,0.143,0.125,0.203,0.192,0.203,0.112,0.074,south,7.1,No
2024/05/15,21:10,0.142,0.125,0.204,0.192,0.204,0.113,0.074,south,6.7,No
2024/05/15,21:20,0.144,0.124,0.203,0.192,0.203,0.112,0.074,south,6.8,No
2024/05/15,21:30,0.144,0.125,0.204,0.192,0.205,0.112,0.074,south,7.0,No
2024/05/15,21:40,0.142,0.125,0.204,0.192,0.203,0.113,0.074,south,6.9,No
2024/05/15,21:50,0.143,0.125,0.204,0.191,0.205,0.112,0.073,south,6.3,No
2024/05/15,22:00,0.141,0.125,0.203,0.192,0.201,0.112,0.074,south-southwest,6.2,No
2024/05/15,22:10,0.144,0.125,0.203,0.190,0.204,0.112,0.073,south-southwest,6.7,No
2024/05/15,22:20,0.141,0.126,0.203,0.191,0.202,0.113,0.074,south-southwest,6.5,No
2024/05/15,22:30,0.143,0.125,0.203,0.191,0.203,0.112,0.073,south-southwest,6.8,No
2024/05/15,22:40,0.142,0.125,0.204,0.192,0.201,0.113,0.074,south,5.4,No
2024/05/15,22:50,0.143,0.125,0.203,0.191,0.203,0.112,0.073,south-southwest,6.0,No
2024/05/15,23:00,0.142,0.125,0.203,0.193,0.202,0.113,0.074,south,6.0,Yes
2024/05/15,23:10,0.142,0.127,0.204,0.192,0.204,0.114,0.074,south,5.1,Yes
2024/05/15,23:20,0.144,0.127,0.206,0.195,0.206,0.112,0.075,south,4.6,Yes
2024/05/15,23:30,0.146,0.128,0.207,0.194,0.206,0.115,0.076,south-southwest,5.2,Yes
2024/05/15,23:40,0.146,0.128,0.209,0.196,0.205,0.116,0.077,south,5.3,Yes
2024/05/15,23:50,0.147,0.130,0.207,0.196,0.207,0.118,0.078,south,5.3,Yes
